This is the latest recevied weather packets stored in our database for station/object W0VI. If no packets are shown the sender has not sent any weather packets the latest 10 day(s).
| Time | Temp. | Humidity | Pressure | Rain* | Wind** | Luminosity | Snow |
|---|---|---|---|---|---|---|---|
| 1777871329 | 13.33° C | 50% | 1000.9 hPa | 0 mm | - | 0 W/m² | - |
| 1777871026 | 13.33° C | 50% | 1001.2 hPa | 0 mm | - | 0 W/m² | - |
| 1777870723 | 12.78° C | 53% | 1001.4 hPa | 0 mm | - | 0 W/m² | - |
| 1777870418 | 12.78° C | 51% | 1001.4 hPa | 0 mm | - | 0 W/m² | - |
| 1777870115 | 12.78° C | 51% | 1001.7 hPa | 0 mm | - | 0 W/m² | - |
| 1777869813 | 12.78° C | 51% | 1001.7 hPa | 0 mm | - | 0 W/m² | - |
| 1777869510 | 12.78° C | 52% | 1001.8 hPa | 0 mm | - | 0 W/m² | - |
| 1777869207 | 12.78° C | 51% | 1002 hPa | 0 mm | - | 0 W/m² | - |
| 1777868904 | 12.78° C | 50% | 1002 hPa | 0 mm | - | 0 W/m² | - |
| 1777868600 | 12.78° C | 51% | 1002 hPa | 0 mm | - | 0 W/m² | - |
| 1777868297 | 12.78° C | 52% | 1002.5 hPa | 0 mm | - | 0 W/m² | - |
| 1777867993 | 12.78° C | 51% | 1002.2 hPa | 0 mm | - | 0 W/m² | - |
| 1777867689 | 12.78° C | 52% | 1002.5 hPa | 0 mm | - | 0 W/m² | - |
| 1777867387 | 12.22° C | 52% | 1002.5 hPa | 0 mm | - | 0 W/m² | - |
| 1777867082 | 12.22° C | 53% | 1002.6 hPa | 0 mm | - | 0 W/m² | - |
| 1777866780 | 12.22° C | 54% | 1002.6 hPa | 0 mm | - | 0 W/m² | - |
| 1777866477 | 12.22° C | 57% | 1002.9 hPa | 0 mm | - | 0 W/m² | - |
| 1777866175 | 12.22° C | 57% | 1003 hPa | 0 mm | - | 0 W/m² | - |
| 1777865871 | 12.22° C | 55% | 1002.9 hPa | 0 mm | - | 0 W/m² | - |
| 1777865569 | 12.78° C | 55% | 1003.2 hPa | 0 mm | - | 0 W/m² | - |
| 1777865266 | 12.78° C | 56% | 1003.2 hPa | 0 mm | - | 0 W/m² | - |
| 1777864963 | 13.33° C | 53% | 1003.3 hPa | 0 mm | - | 0 W/m² | - |
| 1777864659 | 13.33° C | 53% | 1003.5 hPa | 0 mm | - | 0 W/m² | - |
| 1777864358 | 13.33° C | 52% | 1003.6 hPa | 0 mm | - | 0 W/m² | - |
| 1777864052 | 13.33° C | 49% | 1003.4 hPa | 0 mm | - | 0 W/m² | - |
* Rain latest hour (hover to see other rain measurements)
** Current wind speed in m/s (hover to see current wind gust speed)